START_TIME,STEP,MOV.,M35,t_acc.,PL05,t_acc.,PL06,t_acc.,PL07,t_acc.
1979-07-06 21:00:24.550 ,0,0,5.,4.8,2816.,4.8,832.,4.8,288.,4.8
1979-07-06 21:00:29.350 ,0,0,11.,4.8,2880.,4.8,848.,4.8,280.,4.8
1979-07-06 21:00:34.150 ,0,0,6.,4.8,2880.,4.8,816.,4.8,252.,4.8
1979-07-06 21:00:38.950 ,0,0,7.,4.8,2880.,4.8,848.,4.8,264.,4.8
1979-07-06 21:00:43.750 ,0,0,7.,4.8,2944.,4.8,880.,4.8,312.,4.8
1979-07-06 21:00:48.550 ,0,0,4.,4.8,3008.,4.8,880.,4.8,272.,4.8
1979-07-06 21:00:53.350 ,0,0,9.,4.8,3200.,4.8,864.,4.8,288.,4.8
1979-07-06 21:00:58.150 ,0,0,4.,4.8,3136.,4.8,864.,4.8,288.,4.8
1979-07-06 21:01:02.950 ,0,0,3.,4.8,3008.,4.8,912.,4.8,320.,4.8
1979-07-06 21:01:07.750 ,0,0,2.,4.8,3072.,4.8,832.,4.8,304.,4.8
1979-07-06 21:01:12.550 ,0,0,11.,4.8,3136.,4.8,928.,4.8,312.,4.8
1979-07-06 21:01:17.350 ,0,0,6.,4.8,3072.,4.8,832.,4.8,272.,4.8
1979-07-06 21:01:22.150 ,0,0,6.,4.8,2880.,4.8,848.,4.8,280.,4.8
1979-07-06 21:01:26.950 ,0,0,4.,4.8,2880.,4.8,784.,4.8,232.,4.8
1979-07-06 21:01:31.750 ,0,0,7.,4.8,2880.,4.8,768.,4.8,248.,4.8
1979-07-06 21:01:36.550 ,1,0,5.,4.8,2880.,4.8,736.,4.8,272.,4.8
1979-07-06 21:01:41.350 ,1,0,7.,4.8,2816.,4.8,752.,4.8,264.,4.8
1979-07-06 21:01:46.150 ,1,0,3.,4.8,2432.,4.8,656.,4.8,192.,4.8
1979-07-06 21:01:50.950 ,1,0,3.,4.8,2496.,4.8,704.,4.8,224.,4.8
1979-07-06 21:01:55.750 ,1,0,2.,4.8,2432.,4.8,736.,4.8,220.,4.8
1979-07-06 21:02:00.550 ,1,0,4.,4.8,2240.,4.8,704.,4.8,240.,4.8
1979-07-06 21:02:05.350 ,1,0,4.,4.8,2304.,4.8,752.,4.8,256.,4.8
1979-07-06 21:02:10.150 ,1,0,7.,4.8,2560.,4.8,784.,4.8,256.,4.8
1979-07-06 21:02:14.950 ,1,0,5.,4.8,2688.,4.8,752.,4.8,280.,4.8
1979-07-06 21:02:19.750 ,1,0,3.,4.8,2752.,4.8,752.,4.8,224.,4.8
1979-07-06 21:02:24.550 ,2,0,5.,4.8,2816.,4.8,784.,4.8,228.,4.8
1979-07-06 21:02:29.350 ,2,0,3.,4.8,2816.,4.8,800.,4.8,244.,4.8
1979-07-06 21:02:34.150 ,2,0,4.,4.8,2752.,4.8,736.,4.8,272.,4.8
1979-07-06 21:02:38.950 ,2,0,4.,4.8,2752.,4.8,720.,4.8,272.,4.8
1979-07-06 21:02:43.750 ,2,0,4.,4.8,2624.,4.8,800.,4.8,272.,4.8
1979-07-06 21:02:48.550 ,2,0,6.,4.8,2688.,4.8,800.,4.8,256.,4.8
1979-07-06 21:02:53.350 ,2,0,3.,4.8,2560.,4.8,736.,4.8,264.,4.8
1979-07-06 21:02:58.150 ,2,0,3.,4.8,2496.,4.8,784.,4.8,256.,4.8
1979-07-06 21:03:02.950 ,2,0,5.,4.8,2496.,4.8,752.,4.8,264.,4.8
1979-07-06 21:03:07.750 ,2,0,5.,4.8,2304.,4.8,720.,4.8,244.,4.8
1979-07-06 21:03:12.550 ,3,0,8.,4.8,2112.,4.8,704.,4.8,236.,4.8
1979-07-06 21:03:17.350 ,3,0,6.,4.8,2048.,4.8,624.,4.8,232.,4.8
1979-07-06 21:03:22.150 ,3,0,5.,4.8,2752.,4.8,896.,4.8,328.,4.8
1979-07-06 21:03:26.950 ,3,0,3.,4.8,2560.,4.8,864.,4.8,312.,4.8
1979-07-06 21:03:31.750 ,3,0,7.,4.8,2496.,4.8,832.,4.8,320.,4.8
1979-07-06 21:03:36.550 ,3,0,10.,4.8,2496.,4.8,816.,4.8,352.,4.8
1979-07-06 21:03:41.350 ,3,0,4.,4.8,2688.,4.8,800.,4.8,272.,4.8
1979-07-06 21:03:46.150 ,3,0,7.,4.8,2688.,4.8,736.,4.8,304.,4.8
1979-07-06 21:03:50.950 ,3,0,4.,4.8,2816.,4.8,768.,4.8,296.,4.8
1979-07-06 21:03:55.750 ,3,0,7.,4.8,2560.,4.8,800.,4.8,304.,4.8
1979-07-06 21:04:00.550 ,4,0,4.,4.8,2496.,4.8,784.,4.8,272.,4.8
1979-07-06 21:04:05.350 ,4,0,5.,4.8,2560.,4.8,832.,4.8,256.,4.8
1979-07-06 21:04:10.150 ,4,0,9.,4.8,3840.,4.8,1120.,4.8,360.,4.8
1979-07-06 21:04:14.950 ,4,0,14.,4.8,3840.,4.8,1120.,4.8,408.,4.8
1979-07-06 21:04:19.750 ,4,0,8.,4.8,3904.,4.8,1120.,4.8,432.,4.8
1979-07-06 21:04:24.550 ,4,0,12.,4.8,4032.,4.8,1152.,4.8,424.,4.8
1979-07-06 21:04:29.350 ,4,0,15.,4.8,3904.,4.8,1216.,4.8,392.,4.8
1979-07-06 21:04:34.150 ,4,0,14.,4.8,4032.,4.8,1184.,4.8,424.,4.8
1979-07-06 21:04:38.950 ,4,0,10.,4.8,4032.,4.8,1120.,4.8,416.,4.8
1979-07-06 21:04:43.750 ,4,0,8.,4.8,3968.,4.8,1120.,4.8,384.,4.8
1979-07-06 21:04:48.550 ,5,0,8.,4.8,3904.,4.8,1056.,4.8,384.,4.8
1979-07-06 21:04:53.350 ,5,0,10.,4.8,3776.,4.8,1056.,4.8,376.,4.8
1979-07-06 21:04:58.150 ,5,0,19.,4.8,5760.,4.8,1440.,4.8,576.,4.8
1979-07-06 21:05:02.950 ,5,0,12.,4.8,5632.,4.8,1408.,4.8,528.,4.8
1979-07-06 21:05:07.750 ,5,0,11.,4.8,5376.,4.8,1408.,4.8,528.,4.8
1979-07-06 21:05:12.550 ,5,0,13.,4.8,5120.,4.8,1408.,4.8,496.,4.8
1979-07-06 21:05:17.350 ,5,0,15.,4.8,5120.,4.8,1312.,4.8,504.,4.8
1979-07-06 21:05:22.150 ,5,0,13.,4.8,5120.,4.8,1376.,4.8,480.,4.8
1979-07-06 21:05:26.950 ,5,0,11.,4.8,5120.,4.8,1408.,4.8,504.,4.8
1979-07-06 21:05:31.750 ,5,0,20.,4.8,5248.,4.8,1408.,4.8,488.,4.8
1979-07-06 21:05:36.550 ,6,0,10.,4.8,5248.,4.8,1376.,4.8,456.,4.8
1979-07-06 21:05:41.350 ,6,0,19.,4.8,5120.,4.8,1376.,4.8,512.,4.8
1979-07-06 21:05:46.150 ,6,0,17.,4.8,4736.,4.8,1280.,4.8,456.,4.8
1979-07-06 21:05:50.950 ,6,0,18.,4.8,4992.,4.8,1344.,4.8,504.,4.8
1979-07-06 21:05:55.750 ,6,0,24.,4.8,5120.,4.8,1312.,4.8,496.,4.8
1979-07-06 21:06:00.550 ,6,0,14.,4.8,5248.,4.8,1376.,4.8,496.,4.8
1979-07-06 21:06:05.350 ,6,0,13.,4.8,5248.,4.8,1472.,4.8,504.,4.8
1979-07-06 21:06:10.150 ,6,0,27.,4.8,5376.,4.8,1376.,4.8,528.,4.8
1979-07-06 21:06:14.950 ,6,0,15.,4.8,5248.,4.8,1376.,4.8,512.,4.8
1979-07-06 21:06:19.750 ,6,0,23.,4.8,5248.,4.8,1408.,4.8,496.,4.8
1979-07-06 21:06:24.550 ,7,0,30.,4.8,5504.,4.8,1408.,4.8,496.,4.8
1979-07-06 21:06:29.350 ,7,0,21.,4.8,5632.,4.8,1440.,4.8,528.,4.8
1979-07-06 21:06:34.150 ,7,0,1.,4.8,128.,4.8,28.,4.8,10.,4.8
1979-07-06 21:06:38.950 ,7,0,0.,4.8,26.,4.8,1.,4.8,1.,4.8
1979-07-06 21:06:43.750 ,7,0,0.,4.8,43.,4.8,5.,4.8,0.,4.8
1979-07-06 21:06:48.550 ,7,0,0.,4.8,40.,4.8,2.,4.8,0.,4.8
1979-07-06 21:06:53.350 ,7,0,0.,4.8,32.,4.8,2.,4.8,1.,4.8
1979-07-06 21:06:58.150 ,7,0,0.,4.8,43.,4.8,0.,4.8,1.,4.8
1979-07-06 21:07:02.950 ,7,0,0.,4.8,41.,4.8,6.,4.8,1.,4.8
1979-07-06 21:07:07.750 ,7,0,0.,4.8,39.,4.8,6.,4.8,1.,4.8
1979-07-06 21:07:12.550 ,3,1,5.,4.8,1536.,4.8,416.,4.8,160.,4.8
1979-07-06 21:07:17.350 ,3,1,19.,4.8,6144.,4.8,1632.,4.8,624.,4.8
1979-07-06 21:07:22.150 ,3,1,23.,4.8,6528.,4.8,1568.,4.8,592.,4.8
1979-07-06 21:07:26.950 ,3,1,14.,4.8,4736.,4.8,1216.,4.8,416.,4.8
1979-07-06 21:07:31.750 ,3,1,9.,4.8,3456.,4.8,928.,4.8,344.,4.8
1979-07-06 21:07:36.550 ,0,1,5.,4.8,2752.,4.8,736.,4.8,280.,4.8
1979-07-06 21:07:41.350 ,0,1,5.,4.8,2304.,4.8,624.,4.8,224.,4.8
1979-07-06 21:07:46.150 ,0,1,8.,4.8,2432.,4.8,640.,4.8,200.,4.8
1979-07-06 21:07:50.950 ,0,1,6.,4.8,2624.,4.8,720.,4.8,240.,4.8
1979-07-06 21:07:55.750 ,0,1,8.,4.8,2944.,4.8,880.,4.8,304.,4.8
1979-07-06 21:08:00.550 ,4,1,9.,4.8,2624.,4.8,816.,4.8,296.,4.8
1979-07-06 21:08:05.350 ,4,1,1.,4.8,2496.,4.8,688.,4.8,236.,4.8
1979-07-06 21:08:10.150 ,4,1,5.,4.8,2496.,4.8,672.,4.8,212.,4.8
1979-07-06 21:08:14.950 ,4,1,6.,4.8,2944.,4.8,848.,4.8,264.,4.8
1979-07-06 21:08:19.750 ,4,1,8.,4.8,3840.,4.8,1088.,4.8,360.,4.8
1979-07-06 21:08:24.550 ,7,1,15.,4.8,5248.,4.8,1408.,4.8,472.,4.8
1979-07-06 21:08:29.350 ,7,1,22.,4.8,6784.,4.8,1760.,4.8,608.,4.8
1979-07-06 21:08:34.150 ,7,1,30.,4.8,7040.,4.8,2016.,4.8,752.,4.8
1979-07-06 21:08:38.950 ,7,1,13.,4.8,1888.,4.8,480.,4.8,220.,4.8
1979-07-06 21:08:43.750 ,7,1,0.,4.8,37.,4.8,1.,4.8,3.,4.8
1979-07-06 21:08:48.550 ,3,1,5.,4.8,1856.,4.8,488.,4.8,192.,4.8
1979-07-06 21:08:53.350 ,3,1,23.,4.8,7808.,4.8,2176.,4.8,752.,4.8
1979-07-06 21:08:58.150 ,3,1,21.,4.8,7168.,4.8,1888.,4.8,672.,4.8
1979-07-06 21:09:02.950 ,3,1,13.,4.8,5376.,4.8,1440.,4.8,472.,4.8
1979-07-06 21:09:07.750 ,3,1,10.,4.8,3904.,4.8,1088.,4.8,336.,4.8
1979-07-06 21:09:12.550 ,0,1,8.,4.8,2944.,4.8,848.,4.8,280.,4.8
1979-07-06 21:09:17.350 ,0,1,4.,4.8,2560.,4.8,704.,4.8,236.,4.8
1979-07-06 21:09:22.150 ,0,1,4.,4.8,2752.,4.8,752.,4.8,228.,4.8
1979-07-06 21:09:26.950 ,0,1,7.,4.8,3136.,4.8,912.,4.8,304.,4.8
1979-07-06 21:09:31.750 ,0,1,5.,4.8,3520.,4.8,1024.,4.8,320.,4.8
1979-07-06 21:09:36.550 ,4,1,6.,4.8,3136.,4.8,896.,4.8,280.,4.8
1979-07-06 21:09:41.350 ,4,1,7.,4.8,2816.,4.8,704.,4.8,224.,4.8
1979-07-06 21:09:46.150 ,4,1,5.,4.8,2752.,4.8,704.,4.8,256.,4.8
1979-07-06 21:09:50.950 ,4,1,3.,4.8,3072.,4.8,912.,4.8,280.,4.8
1979-07-06 21:09:55.750 ,4,1,6.,4.8,3968.,4.8,1152.,4.8,368.,4.8
1979-07-06 21:10:00.550 ,7,1,16.,4.8,5376.,4.8,1568.,4.8,528.,4.8
1979-07-06 21:10:05.350 ,7,1,18.,4.8,7552.,4.8,2112.,4.8,704.,4.8
1979-07-06 21:10:10.150 ,7,1,31.,4.8,8960.,4.8,2304.,4.8,816.,4.8
1979-07-06 21:10:14.950 ,7,1,9.,4.8,2304.,4.8,592.,4.8,188.,4.8
1979-07-06 21:10:19.750 ,7,1,0.,4.8,42.,4.8,2.,4.8,1.,4.8
1979-07-06 21:10:24.550 ,3,1,5.,4.8,2016.,4.8,528.,4.8,184.,4.8
1979-07-06 21:10:29.350 ,3,1,32.,4.8,8192.,4.8,2240.,4.8,784.,4.8
1979-07-06 21:10:34.150 ,3,1,29.,4.8,7936.,4.8,2112.,4.8,720.,4.8
1979-07-06 21:10:38.950 ,3,1,16.,4.8,5632.,4.8,1568.,4.8,512.,4.8
1979-07-06 21:10:43.750 ,3,1,10.,4.8,4032.,4.8,1184.,4.8,360.,4.8
1979-07-06 21:10:48.550 ,0,1,7.,4.8,3072.,4.8,880.,4.8,312.,4.8
1979-07-06 21:10:53.350 ,0,1,2.,4.8,2432.,4.8,752.,4.8,220.,4.8
1979-07-06 21:10:58.150 ,0,1,6.,4.8,2496.,4.8,720.,4.8,244.,4.8
1979-07-06 21:11:02.950 ,0,1,6.,4.8,2624.,4.8,832.,4.8,280.,4.8
1979-07-06 21:11:07.750 ,0,1,9.,4.8,3136.,4.8,928.,4.8,320.,4.8
1979-07-06 21:11:12.550 ,4,1,5.,4.8,2880.,4.8,816.,4.8,320.,4.8
1979-07-06 21:11:17.350 ,4,1,11.,4.8,2496.,4.8,720.,4.8,252.,4.8
1979-07-06 21:11:22.150 ,4,1,4.,4.8,2368.,4.8,704.,4.8,244.,4.8
1979-07-06 21:11:26.950 ,4,1,2.,4.8,2880.,4.8,864.,4.8,264.,4.8
1979-07-06 21:11:31.750 ,4,1,10.,4.8,3584.,4.8,1024.,4.8,344.,4.8
1979-07-06 21:11:36.550 ,7,1,16.,4.8,5120.,4.8,1504.,4.8,504.,4.8
1979-07-06 21:11:41.350 ,7,1,24.,4.8,7424.,4.8,2112.,4.8,720.,4.8
1979-07-06 21:11:46.150 ,7,1,30.,4.8,9472.,4.8,2304.,4.8,784.,4.8
1979-07-06 21:11:50.950 ,7,1,8.,4.8,2432.,4.8,592.,4.8,204.,4.8
1979-07-06 21:11:55.750 ,7,1,0.,4.8,49.,4.8,2.,4.8,1.,4.8
1979-07-06 21:12:00.550 ,3,1,8.,4.8,2240.,4.8,608.,4.8,204.,4.8
1979-07-06 21:12:05.350 ,3,1,29.,4.8,9216.,4.8,2368.,4.8,784.,4.8
1979-07-06 21:12:10.150 ,3,1,24.,4.8,7936.,4.8,2048.,4.8,704.,4.8
1979-07-06 21:12:14.950 ,3,1,13.,4.8,5120.,4.8,1504.,4.8,512.,4.8
1979-07-06 21:12:19.750 ,3,1,6.,4.8,3520.,4.8,1056.,4.8,352.,4.8
1979-07-06 21:12:24.550 ,0,1,8.,4.8,2688.,4.8,768.,4.8,280.,4.8
1979-07-06 21:12:29.350 ,0,1,6.,4.8,2368.,4.8,704.,4.8,252.,4.8
1979-07-06 21:12:34.150 ,0,1,4.,4.8,2688.,4.8,800.,4.8,256.,4.8
1979-07-06 21:12:38.950 ,0,1,5.,4.8,2880.,4.8,912.,4.8,304.,4.8
1979-07-06 21:12:43.750 ,0,1,8.,4.8,3136.,4.8,1008.,4.8,360.,4.8
1979-07-06 21:12:48.550 ,4,1,11.,4.8,2816.,4.8,848.,4.8,344.,4.8
1979-07-06 21:12:53.350 ,4,1,,0,,0,,0,,0
1979-07-06 21:12:58.150 ,4,1,2.,4.8,2304.,4.8,704.,4.8,240.,4.8
1979-07-06 21:13:02.950 ,4,1,2.,4.8,2560.,4.8,768.,4.8,288.,4.8
1979-07-06 21:13:07.750 ,4,1,3.,4.8,3264.,4.8,1024.,4.8,360.,4.8
1979-07-06 21:13:12.550 ,7,1,14.,4.8,4608.,4.8,1408.,4.8,544.,4.8
1979-07-06 21:13:17.350 ,7,1,22.,4.8,6784.,4.8,1888.,4.8,720.,4.8
1979-07-06 21:13:22.150 ,7,1,38.,4.8,8448.,4.8,2048.,4.8,768.,4.8
1979-07-06 21:13:26.950 ,7,1,7.,4.8,2176.,4.8,528.,4.8,208.,4.8
1979-07-06 21:13:31.750 ,7,1,0.,4.8,39.,4.8,2.,4.8,2.,4.8
1979-07-06 21:13:36.550 ,3,1,7.,4.8,2112.,4.8,496.,4.8,184.,4.8
1979-07-06 21:13:41.350 ,3,1,35.,4.8,8448.,4.8,2112.,4.8,768.,4.8
1979-07-06 21:13:46.150 ,3,1,13.,4.8,6400.,4.8,1760.,4.8,624.,4.8
1979-07-06 21:13:50.950 ,3,1,15.,4.8,4480.,4.8,1216.,4.8,504.,4.8
1979-07-06 21:13:55.750 ,3,1,4.,4.8,3200.,4.8,992.,4.8,336.,4.8
1979-07-06 21:14:00.550 ,0,1,3.,4.8,2624.,4.8,720.,4.8,256.,4.8
1979-07-06 21:14:05.350 ,0,1,4.,4.8,2368.,4.8,656.,4.8,200.,4.8
1979-07-06 21:14:10.150 ,0,1,3.,4.8,2816.,4.8,672.,4.8,224.,4.8
1979-07-06 21:14:14.950 ,0,1,17.,4.8,3008.,4.8,752.,4.8,240.,4.8
1979-07-06 21:14:19.750 ,0,1,21.,4.8,3264.,4.8,864.,4.8,320.,4.8
1979-07-06 21:14:24.550 ,4,1,7.,4.8,2816.,4.8,768.,4.8,296.,4.8
1979-07-06 21:14:29.350 ,4,1,6.,4.8,2432.,4.8,656.,4.8,216.,4.8
1979-07-06 21:14:34.150 ,4,1,2.,4.8,2368.,4.8,592.,4.8,196.,4.8
1979-07-06 21:14:38.950 ,4,1,7.,4.8,2688.,4.8,704.,4.8,220.,4.8
1979-07-06 21:14:43.750 ,4,1,10.,4.8,3520.,4.8,944.,4.8,288.,4.8
1979-07-06 21:14:48.550 ,7,1,15.,4.8,4992.,4.8,1344.,4.8,456.,4.8
1979-07-06 21:14:53.350 ,7,1,23.,4.8,7296.,4.8,1856.,4.8,640.,4.8
1979-07-06 21:14:58.150 ,7,1,41.,4.8,8448.,4.8,1824.,4.8,704.,4.8
1979-07-06 21:15:02.950 ,7,1,7.,4.8,2176.,4.8,512.,4.8,196.,4.8
1979-07-06 21:15:07.750 ,7,1,0.,4.8,53.,4.8,2.,4.8,0.,4.8
1979-07-06 21:15:12.550 ,3,1,12.,4.8,2048.,4.8,488.,4.8,156.,4.8
1979-07-06 21:15:17.350 ,3,1,42.,4.8,8448.,4.8,1952.,4.8,704.,4.8
1979-07-06 21:15:22.150 ,3,1,25.,4.8,6784.,4.8,1600.,4.8,592.,4.8
1979-07-06 21:15:26.950 ,3,1,12.,4.8,4608.,4.8,1152.,4.8,464.,4.8
1979-07-06 21:15:31.750 ,3,1,6.,4.8,3392.,4.8,896.,4.8,288.,4.8
1979-07-06 21:15:36.550 ,0,1,6.,4.8,2752.,4.8,720.,4.8,264.,4.8
1979-07-06 21:15:41.350 ,0,1,2.,4.8,2560.,4.8,608.,4.8,184.,4.8
1979-07-06 21:15:46.150 ,0,1,11.,4.8,2752.,4.8,672.,4.8,224.,4.8
1979-07-06 21:15:50.950 ,0,1,12.,4.8,3072.,4.8,864.,4.8,352.,4.8
1979-07-06 21:15:55.750 ,0,1,21.,4.8,3328.,4.8,928.,4.8,344.,4.8
1979-07-06 21:16:00.550 ,4,1,21.,4.8,2944.,4.8,816.,4.8,352.,4.8
1979-07-06 21:16:05.350 ,4,1,6.,4.8,2496.,4.8,608.,4.8,236.,4.8
1979-07-06 21:16:10.150 ,4,1,4.,4.8,2368.,4.8,560.,4.8,224.,4.8
1979-07-06 21:16:14.950 ,4,1,0.,4.8,2688.,4.8,752.,4.8,256.,4.8
1979-07-06 21:16:19.750 ,4,1,9.,4.8,3200.,4.8,912.,4.8,336.,4.8
1979-07-06 21:16:24.550 ,7,1,17.,4.8,4096.,4.8,1184.,4.8,432.,4.8
1979-07-06 21:16:29.350 ,7,1,23.,4.8,5760.,4.8,1536.,4.8,576.,4.8
1979-07-06 21:16:34.150 ,7,1,51.,4.8,8192.,4.8,2048.,4.8,896.,4.8
1979-07-06 21:16:38.950 ,7,1,14.,4.8,2240.,4.8,528.,4.8,204.,4.8
1979-07-06 21:16:43.750 ,7,1,0.,4.8,43.,4.8,2.,4.8,0.,4.8
1979-07-06 21:16:48.550 ,3,1,8.,4.8,2112.,4.8,528.,4.8,184.,4.8
1979-07-06 21:16:53.350 ,3,1,53.,4.8,8448.,4.8,2048.,4.8,944.,4.8
1979-07-06 21:16:58.150 ,3,1,27.,4.8,5760.,4.8,1504.,4.8,640.,4.8
1979-07-06 21:17:02.950 ,3,1,15.,4.8,4032.,4.8,1120.,4.8,440.,4.8
1979-07-06 21:17:07.750 ,3,1,7.,4.8,2752.,4.8,864.,4.8,312.,4.8
1979-07-06 21:17:12.550 ,0,1,6.,4.8,2240.,4.8,656.,4.8,248.,4.8
1979-07-06 21:17:17.350 ,0,1,6.,4.8,2112.,4.8,544.,4.8,160.,4.8
1979-07-06 21:17:22.150 ,0,1,4.,4.8,2496.,4.8,656.,4.8,272.,4.8
1979-07-06 21:17:26.950 ,0,1,9.,4.8,2944.,4.8,848.,4.8,344.,4.8
1979-07-06 21:17:31.750 ,0,1,10.,4.8,3328.,4.8,1008.,4.8,400.,4.8
1979-07-06 21:17:36.550 ,0,0,11.,4.8,3072.,4.8,832.,4.8,352.,4.8
1979-07-06 21:17:41.350 ,0,0,12.,4.8,2432.,4.8,640.,4.8,256.,4.8
1979-07-06 21:17:46.150 ,0,0,4.,4.8,2112.,4.8,488.,4.8,220.,4.8
1979-07-06 21:17:50.950 ,0,0,5.,4.8,2368.,4.8,608.,4.8,256.,4.8
1979-07-06 21:17:55.750 ,0,0,3.,4.8,2944.,4.8,832.,4.8,280.,4.8
1979-07-06 21:18:00.550 ,0,0,25.,4.8,4032.,4.8,1152.,4.8,448.,4.8
1979-07-06 21:18:05.350 ,0,0,22.,4.8,5888.,4.8,1664.,4.8,704.,4.8
1979-07-06 21:18:10.150 ,0,0,41.,4.8,8960.,4.8,2240.,4.8,928.,4.8
1979-07-06 21:18:14.950 ,0,0,10.,4.8,2368.,4.8,576.,4.8,224.,4.8
1979-07-06 21:18:19.750 ,0,0,0.,4.8,42.,4.8,6.,4.8,0.,4.8
1979-07-06 21:18:24.550 ,5,0,9.,4.8,2304.,4.8,592.,4.8,256.,4.8
1979-07-06 21:18:29.350 ,5,0,41.,4.8,9216.,4.8,2432.,4.8,1056.,4.8
1979-07-06 21:18:34.150 ,5,0,35.,4.8,6144.,4.8,1824.,4.8,816.,4.8
1979-07-06 21:18:38.950 ,5,0,34.,4.8,6016.,4.8,1888.,4.8,864.,4.8
1979-07-06 21:18:43.750 ,5,0,26.,4.8,6272.,4.8,1920.,4.8,864.,4.8
1979-07-06 21:18:48.550 ,5,0,34.,4.8,6784.,4.8,2016.,4.8,848.,4.8
1979-07-06 21:18:53.350 ,5,0,32.,4.8,7168.,4.8,2112.,4.8,896.,4.8
1979-07-06 21:18:58.150 ,5,0,28.,4.8,7424.,4.8,2048.,4.8,880.,4.8
1979-07-06 21:19:02.950 ,5,0,46.,4.8,7680.,4.8,2176.,4.8,848.,4.8
1979-07-06 21:19:07.750 ,5,0,38.,4.8,8064.,4.8,2240.,4.8,928.,4.8
1979-07-06 21:19:12.550 ,4,0,31.,4.8,8064.,4.8,2176.,4.8,960.,4.8
1979-07-06 21:19:17.350 ,4,0,41.,4.8,7936.,4.8,2176.,4.8,880.,4.8
1979-07-06 21:19:22.150 ,4,0,17.,4.8,4480.,4.8,1184.,4.8,480.,4.8
1979-07-06 21:19:26.950 ,4,0,7.,4.8,4608.,4.8,1280.,4.8,480.,4.8
1979-07-06 21:19:31.750 ,4,0,20.,4.8,4864.,4.8,1280.,4.8,488.,4.8
1979-07-06 21:19:36.550 ,4,0,13.,4.8,4992.,4.8,1248.,4.8,504.,4.8
1979-07-06 21:19:41.350 ,4,0,13.,4.8,5120.,4.8,1344.,4.8,528.,4.8
1979-07-06 21:19:46.150 ,4,0,16.,4.8,5248.,4.8,1376.,4.8,528.,4.8
1979-07-06 21:19:50.950 ,4,0,11.,4.8,5120.,4.8,1344.,4.8,560.,4.8
1979-07-06 21:19:55.750 ,4,0,18.,4.8,4864.,4.8,1472.,4.8,560.,4.8
1979-07-06 21:20:00.550 ,3,0,15.,4.8,4608.,4.8,1472.,4.8,528.,4.8
1979-07-06 21:20:05.350 ,3,0,10.,4.8,4480.,4.8,1376.,4.8,544.,4.8
1979-07-06 21:20:10.150 ,3,0,9.,4.8,3072.,4.8,912.,4.8,336.,4.8
1979-07-06 21:20:14.950 ,3,0,6.,4.8,3136.,4.8,880.,4.8,336.,4.8
1979-07-06 21:20:19.750 ,3,0,8.,4.8,3072.,4.8,896.,4.8,288.,4.8
1979-07-06 21:20:24.550 ,3,0,11.,4.8,3136.,4.8,784.,4.8,320.,4.8
1979-07-06 21:20:29.350 ,3,0,5.,4.8,3200.,4.8,816.,4.8,296.,4.8
1979-07-06 21:20:34.150 ,3,0,9.,4.8,3136.,4.8,848.,4.8,280.,4.8
1979-07-06 21:20:38.950 ,3,0,11.,4.8,3072.,4.8,832.,4.8,304.,4.8
1979-07-06 21:20:43.750 ,3,0,4.,4.8,3008.,4.8,896.,4.8,288.,4.8
1979-07-06 21:20:48.550 ,2,0,8.,4.8,2880.,4.8,768.,4.8,320.,4.8
1979-07-06 21:20:53.350 ,2,0,7.,4.8,2880.,4.8,848.,4.8,272.,4.8
1979-07-06 21:20:58.150 ,2,0,5.,4.8,2560.,4.8,720.,4.8,224.,4.8
1979-07-06 21:21:02.950 ,2,0,4.,4.8,2368.,4.8,640.,4.8,240.,4.8
1979-07-06 21:21:07.750 ,2,0,6.,4.8,2304.,4.8,640.,4.8,208.,4.8
1979-07-06 21:21:12.550 ,2,0,3.,4.8,2368.,4.8,624.,4.8,212.,4.8
1979-07-06 21:21:17.350 ,2,0,2.,4.8,2496.,4.8,656.,4.8,252.,4.8
1979-07-06 21:21:22.150 ,2,0,4.,4.8,2560.,4.8,704.,4.8,204.,4.8
1979-07-06 21:21:26.950 ,2,0,3.,4.8,2624.,4.8,672.,4.8,224.,4.8
1979-07-06 21:21:31.750 ,2,0,3.,4.8,2496.,4.8,720.,4.8,228.,4.8
1979-07-06 21:21:36.550 ,1,0,2.,4.8,2368.,4.8,656.,4.8,236.,4.8
1979-07-06 21:21:41.350 ,1,0,2.,4.8,2240.,4.8,624.,4.8,228.,4.8
1979-07-06 21:21:46.150 ,1,0,2.,4.8,1888.,4.8,432.,4.8,168.,4.8
1979-07-06 21:21:50.950 ,1,0,0.,4.8,1952.,4.8,448.,4.8,148.,4.8
1979-07-06 21:21:55.750 ,1,0,5.,4.8,1792.,4.8,416.,4.8,156.,4.8
1979-07-06 21:22:00.550 ,1,0,4.,4.8,1760.,4.8,408.,4.8,152.,4.8
1979-07-06 21:22:05.350 ,1,0,3.,4.8,1632.,4.8,408.,4.8,148.,4.8
1979-07-06 21:22:10.150 ,1,0,5.,4.8,1568.,4.8,448.,4.8,164.,4.8
1979-07-06 21:22:14.950 ,1,0,3.,4.8,1568.,4.8,392.,4.8,144.,4.8
1979-07-06 21:22:19.750 ,1,0,5.,4.8,1536.,4.8,368.,4.8,148.,4.8
1979-07-06 21:22:24.550 ,0,0,4.,4.8,1504.,4.8,424.,4.8,144.,4.8
1979-07-06 21:22:29.350 ,0,0,5.,4.8,1504.,4.8,416.,4.8,176.,4.8
1979-07-06 21:22:34.150 ,0,0,5.,4.8,1984.,4.8,528.,4.8,228.,4.8
1979-07-06 21:22:38.950 ,0,0,5.,4.8,2016.,4.8,560.,4.8,232.,4.8
1979-07-06 21:22:43.750 ,0,0,9.,4.8,1984.,4.8,576.,4.8,216.,4.8
1979-07-06 21:22:48.550 ,0,0,6.,4.8,1984.,4.8,512.,4.8,244.,4.8
1979-07-06 21:22:53.350 ,0,0,2.,4.8,1984.,4.8,512.,4.8,216.,4.8
1979-07-06 21:22:58.150 ,0,0,4.,4.8,1984.,4.8,488.,4.8,220.,4.8
1979-07-06 21:23:02.950 ,0,0,3.,4.8,2016.,4.8,512.,4.8,204.,4.8
1979-07-06 21:23:07.750 ,0,0,5.,4.8,2016.,4.8,512.,4.8,216.,4.8
1979-07-06 21:23:12.550 ,0,0,7.,4.8,2016.,4.8,504.,4.8,200.,4.8
1979-07-06 21:23:17.350 ,0,0,3.,4.8,2048.,4.8,504.,4.8,232.,4.8
1979-07-06 21:23:22.150 ,0,0,4.,4.8,2048.,4.8,504.,4.8,208.,4.8
1979-07-06 21:23:26.950 ,0,0,6.,4.8,1984.,4.8,472.,4.8,220.,4.8
1979-07-06 21:23:31.750 ,0,0,8.,4.8,1984.,4.8,496.,4.8,216.,4.8
1979-07-06 21:23:36.550 ,0,0,7.,4.8,2016.,4.8,472.,4.8,208.,4.8
1979-07-06 21:23:41.350 ,0,0,3.,4.8,2048.,4.8,496.,4.8,228.,4.8
1979-07-06 21:23:46.150 ,0,0,8.,4.8,1920.,4.8,488.,4.8,212.,4.8
1979-07-06 21:23:50.950 ,0,0,8.,4.8,1920.,4.8,512.,4.8,220.,4.8
1979-07-06 21:23:55.750 ,0,0,2.,4.8,1792.,4.8,472.,4.8,216.,4.8
1979-07-06 21:24:00.550 ,1,0,6.,4.8,1728.,4.8,472.,4.8,216.,4.8
1979-07-06 21:24:05.350 ,1,0,8.,4.8,1600.,4.8,480.,4.8,224.,4.8
1979-07-06 21:24:10.150 ,1,0,4.,4.8,1344.,4.8,416.,4.8,164.,4.8
1979-07-06 21:24:14.950 ,1,0,4.,4.8,1408.,4.8,424.,4.8,196.,4.8
1979-07-06 21:24:19.750 ,1,0,5.,4.8,1376.,4.8,416.,4.8,200.,4.8
1979-07-06 21:24:24.550 ,1,0,2.,4.8,1376.,4.8,448.,4.8,208.,4.8
1979-07-06 21:24:29.350 ,1,0,4.,4.8,1376.,4.8,400.,4.8,200.,4.8
1979-07-06 21:24:34.150 ,1,0,7.,4.8,1440.,4.8,416.,4.8,200.,4.8
1979-07-06 21:24:38.950 ,1,0,7.,4.8,1408.,4.8,472.,4.8,200.,4.8
1979-07-06 21:24:43.750 ,1,0,3.,4.8,1408.,4.8,408.,4.8,208.,4.8
1979-07-06 21:24:48.550 ,2,0,4.,4.8,1536.,4.8,456.,4.8,188.,4.8
1979-07-06 21:24:53.350 ,2,0,4.,4.8,1536.,4.8,440.,4.8,176.,4.8
1979-07-06 21:24:58.150 ,2,0,5.,4.8,1504.,4.8,440.,4.8,192.,4.8
1979-07-06 21:25:02.950 ,2,0,0.,4.8,1696.,4.8,464.,4.8,196.,4.8
1979-07-06 21:25:07.750 ,2,0,7.,4.8,1824.,4.8,504.,4.8,216.,4.8
1979-07-06 21:25:12.550 ,2,0,3.,4.8,1856.,4.8,528.,4.8,196.,4.8
1979-07-06 21:25:17.350 ,2,0,5.,4.8,2016.,4.8,560.,4.8,192.,4.8
1979-07-06 21:25:22.150 ,2,0,4.,4.8,2048.,4.8,640.,4.8,212.,4.8
1979-07-06 21:25:26.950 ,2,0,3.,4.8,2112.,4.8,688.,4.8,288.,4.8
1979-07-06 21:25:31.750 ,2,0,4.,4.8,2176.,4.8,656.,4.8,264.,4.8
1979-07-06 21:25:36.550 ,3,0,7.,4.8,2240.,4.8,672.,4.8,288.,4.8
1979-07-06 21:25:41.350 ,3,0,9.,4.8,2176.,4.8,720.,4.8,272.,4.8
1979-07-06 21:25:46.150 ,3,0,13.,4.8,2496.,4.8,816.,4.8,328.,4.8
1979-07-06 21:25:50.950 ,3,0,5.,4.8,2496.,4.8,816.,4.8,336.,4.8
1979-07-06 21:25:55.750 ,3,0,6.,4.8,2432.,4.8,816.,4.8,328.,4.8
1979-07-06 21:26:00.550 ,3,0,9.,4.8,2560.,4.8,880.,4.8,304.,4.8
1979-07-06 21:26:05.350 ,3,0,10.,4.8,2688.,4.8,848.,4.8,344.,4.8
1979-07-06 21:26:10.150 ,3,0,7.,4.8,2752.,4.8,864.,4.8,328.,4.8
1979-07-06 21:26:14.950 ,3,0,12.,4.8,2688.,4.8,832.,4.8,352.,4.8
1979-07-06 21:26:19.750 ,3,0,2.,4.8,2816.,4.8,832.,4.8,336.,4.8
1979-07-06 21:26:24.550 ,4,0,8.,4.8,2880.,4.8,864.,4.8,376.,4.8
1979-07-06 21:26:29.350 ,4,0,5.,4.8,3008.,4.8,992.,4.8,360.,4.8
1979-07-06 21:26:34.150 ,4,0,13.,4.8,3648.,4.8,1056.,4.8,408.,4.8
1979-07-06 21:26:38.950 ,4,0,8.,4.8,4352.,4.8,1248.,4.8,504.,4.8
1979-07-06 21:26:43.750 ,4,0,17.,4.8,5248.,4.8,1408.,4.8,528.,4.8
1979-07-06 21:26:48.550 ,4,0,16.,4.8,5888.,4.8,1504.,4.8,496.,4.8
1979-07-06 21:26:53.350 ,4,0,16.,4.8,6144.,4.8,1504.,4.8,544.,4.8
1979-07-06 21:26:58.150 ,4,0,14.,4.8,5632.,4.8,1600.,4.8,544.,4.8
1979-07-06 21:27:02.950 ,4,0,13.,4.8,5376.,4.8,1632.,4.8,512.,4.8
1979-07-06 21:27:07.750 ,4,0,26.,4.8,4992.,4.8,1568.,4.8,608.,4.8
1979-07-06 21:27:12.550 ,5,0,19.,4.8,4864.,4.8,1504.,4.8,592.,4.8
1979-07-06 21:27:17.350 ,5,0,23.,4.8,4864.,4.8,1408.,4.8,592.,4.8
1979-07-06 21:27:22.150 ,5,0,42.,4.8,9984.,4.8,2304.,4.8,912.,4.8
1979-07-06 21:27:26.950 ,5,0,34.,4.8,10752.,4.8,2432.,4.8,896.,4.8
1979-07-06 21:27:31.750 ,5,0,37.,4.8,11008.,4.8,2560.,4.8,912.,4.8
1979-07-06 21:27:36.550 ,5,0,37.,4.8,11008.,4.8,2624.,4.8,912.,4.8
1979-07-06 21:27:41.350 ,5,0,38.,4.8,10752.,4.8,2560.,4.8,848.,4.8
1979-07-06 21:27:46.150 ,5,0,38.,4.8,10496.,4.8,2560.,4.8,848.,4.8
1979-07-06 21:27:50.950 ,5,0,27.,4.8,9728.,4.8,2368.,4.8,848.,4.8
1979-07-06 21:27:55.750 ,5,0,29.,4.8,9216.,4.8,2304.,4.8,832.,4.8
1979-07-06 21:28:00.550 ,6,0,29.,4.8,8448.,4.8,2112.,4.8,816.,4.8
1979-07-06 21:28:05.350 ,6,0,23.,4.8,8192.,4.8,2048.,4.8,768.,4.8
1979-07-06 21:28:10.150 ,6,0,34.,4.8,8192.,4.8,1600.,4.8,704.,4.8
1979-07-06 21:28:14.950 ,6,0,17.,4.8,8960.,4.8,1664.,4.8,704.,4.8
1979-07-06 21:28:19.750 ,6,0,25.,4.8,9216.,4.8,1696.,4.8,784.,4.8
1979-07-06 21:28:24.550 ,6,0,24.,4.8,8960.,4.8,1760.,4.8,752.,4.8
1979-07-06 21:28:29.350 ,6,0,30.,4.8,8960.,4.8,1664.,4.8,752.,4.8
1979-07-06 21:28:34.150 ,6,0,29.,4.8,8960.,4.8,1760.,4.8,720.,4.8
1979-07-06 21:28:38.950 ,6,0,29.,4.8,8448.,4.8,1600.,4.8,720.,4.8
1979-07-06 21:28:43.750 ,6,0,30.,4.8,8192.,4.8,1632.,4.8,688.,4.8
1979-07-06 21:28:48.550 ,7,0,25.,4.8,8192.,4.8,1664.,4.8,752.,4.8
1979-07-06 21:28:53.350 ,7,0,31.,4.8,8192.,4.8,1632.,4.8,720.,4.8
1979-07-06 21:28:58.150 ,7,0,0.,4.8,114.,4.8,17.,4.8,9.,4.8
1979-07-06 21:29:02.950 ,7,0,0.,4.8,39.,4.8,2.,4.8,0.,4.8
1979-07-06 21:29:07.750 ,7,0,0.,4.8,49.,4.8,1.,4.8,1.,4.8
1979-07-06 21:29:12.550 ,7,0,0.,4.8,36.,4.8,1.,4.8,0.,4.8
1979-07-06 21:29:17.350 ,7,0,0.,4.8,31.,4.8,0.,4.8,0.,4.8
1979-07-06 21:29:22.150 ,7,0,0.,4.8,35.,4.8,3.,4.8,1.,4.8
1979-07-06 21:29:26.950 ,7,0,0.,4.8,38.,4.8,2.,4.8,1.,4.8
1979-07-06 21:29:31.750 ,7,0,0.,4.8,38.,4.8,2.,4.8,1.,4.8
1979-07-06 21:29:36.550 ,7,0,0.,4.8,38.,4.8,1.,4.8,0.,4.8